Location: Unspecified
(43.4680°N, 87.1740°E)
Time: 05:10:17
(UTC+00:00)

Okean 2 - Pass Details

Date: 03 August 2021
Orbit: 558 x 577 km, 82.5° (Epoch: 27 September)

Event Time Altitude Azimuth Distance (km) Brightness Sun altitude
Rises 20:24:14 0° 339° (NNW) 2,801 7.4 -22.7°
Reaches altitude 10° 20:26:43 10° 325° (NW) 1,896 6.3 -22.4°
Enters shadow 20:28:59 22° 296° (WNW) 1,299 5.1 -22.2°
